| time (UTC) | temp F | wind direction | speed MPH | gust MPH | rain 1hr in | rain 24hr in | rain mn in | humidity % | barometer mb |
| 20260904190841 | 94 | 205 | 3.0 | 5.0 | 0.00 | 0.00 | 0.00 | 68 | 1015.2 |
| 20260904190338 | 94 | 243 | 5.0 | 7.0 | 0.00 | 0.00 | 0.00 | 66 | 1015.2 |
| 20260904185843 | 94 | 308 | 3.0 | 3.0 | 0.00 | 0.00 | 0.00 | 65 | 1015.2 |
| 20260904185339 | 95 | 228 | 5.0 | 5.0 | 0.00 | 0.00 | 0.00 | 66 | 1015.2 |
| 20260904184838 | 93 | 278 | 3.0 | 7.0 | 0.00 | 0.00 | 0.00 | 66 | 1015.6 |
| 20260904184338 | 94 | 217 | 3.0 | 5.0 | 0.00 | 0.00 | 0.00 | 67 | 1015.2 |
| 20260904183839 | 94 | 227 | 5.0 | 5.0 | 0.00 | 0.00 | 0.00 | 68 | 1015.6 |
| 20260904183338 | 93 | 269 | 3.0 | 7.0 | 0.00 | 0.00 | 0.00 | 67 | 1015.6 |
| 20260904182839 | 93 | 184 | 2.0 | 5.0 | 0.00 | 0.00 | 0.00 | 65 | 1015.6 |
| 20260904182338 | 94 | 227 | 3.0 | 5.0 | 0.00 | 0.00 | 0.00 | 67 | 1015.9 |
| 20260904181839 | 93 | 321 | 2.0 | 7.0 | 0.00 | 0.00 | 0.00 | 69 | 1015.9 |
| 20260904181339 | 92 | 219 | 6.0 | 10.0 | 0.00 | 0.00 | 0.00 | 68 | 1015.9 |
| 20260904180838 | 92 | 227 | 6.0 | 7.0 | 0.00 | 0.00 | 0.00 | 70 | 1015.9 |
| 20260904180339 | 93 | 300 | 2.0 | 5.0 | 0.00 | 0.00 | 0.00 | 69 | 1016.3 |
| 20260904175839 | 92 | 254 | 3.0 | 5.0 | 0.00 | 0.00 | 0.00 | 71 | 1016.3 |
| 20260904175338 | 92 | 266 | 5.0 | 7.0 | 0.00 | 0.00 | 0.00 | 70 | 1016.3 |
| 20260904174839 | 93 | 217 | 6.0 | 7.0 | 0.00 | 0.00 | 0.00 | 68 | 1016.3 |
| 20260904174339 | 93 | 234 | 5.0 | 7.0 | 0.00 | 0.00 | 0.00 | 70 | 1016.3 |
| 20260904173838 | 91 | 223 | 2.0 | 5.0 | 0.00 | 0.00 | 0.00 | 69 | 1016.3 |
| 20260904173339 | 91 | 221 | 3.0 | 9.0 | 0.00 | 0.00 | 0.00 | 71 | 1016.3 |
| 20260904172838 | 91 | 240 | 6.0 | 7.0 | 0.00 | 0.00 | 0.00 | 70 | 1016.3 |
| 20260904172341 | 91 | 201 | 6.0 | 12.0 | 0.00 | 0.00 | 0.00 | 72 | 1016.3 |
| 20260904171839 | 91 | 221 | 3.0 | 5.0 | 0.00 | 0.00 | 0.00 | 71 | 1016.3 |
| 20260904171338 | 90 | 260 | 5.0 | 5.0 | 0.00 | 0.00 | 0.00 | 70 | 1016.3 |
| 20260904170839 | 90 | 220 | 5.0 | 10.0 | 0.00 | 0.00 | 0.00 | 73 | 1016.6 |
| 20260904170338 | 89 | 205 | 3.0 | 7.0 | 0.00 | 0.00 | 0.00 | 72 | 1016.3 |
| 20260904165838 | 90 | 182 | 6.0 | 7.0 | 0.00 | 0.00 | 0.00 | 73 | 1016.6 |
| 20260904165339 | 90 | 236 | 6.0 | 7.0 | 0.00 | 0.00 | 0.00 | 73 | 1016.6 |
| 20260904164841 | 89 | 202 | 3.0 | 3.0 | 0.00 | 0.00 | 0.00 | 75 | 1016.6 |
| 20260904164338 | 89 | 215 | 3.0 | 10.0 | 0.00 | 0.00 | 0.00 | 76 | 1016.6 |
| 20260904163839 | 89 | 179 | 3.0 | 5.0 | 0.00 | 0.00 | 0.00 | 78 | 1016.6 |
| 20260904163338 | 89 | 211 | 6.0 | 9.0 | 0.00 | 0.00 | 0.00 | 75 | 1016.6 |
| 20260904162841 | 89 | 299 | 2.0 | 10.0 | 0.00 | 0.00 | 0.00 | 77 | 1016.6 |
| 20260904162339 | 88 | 269 | 5.0 | 7.0 | 0.00 | 0.00 | 0.00 | 77 | 1016.9 |
| 20260904161838 | 88 | 334 | 10.0 | 10.0 | 0.00 | 0.00 | 0.00 | 79 | 1016.9 |
| 20260904161338 | 88 | 228 | 6.0 | 7.0 | 0.00 | 0.00 | 0.00 | 78 | 1016.9 |
| 20260904160841 | 88 | 225 | 3.0 | 12.0 | 0.00 | 0.00 | 0.00 | 80 | 1016.9 |
| 20260904160339 | 88 | 250 | 6.0 | 10.0 | 0.00 | 0.00 | 0.00 | 79 | 1017.3 |
| 20260904155839 | 87 | 247 | 5.0 | 9.0 | 0.00 | 0.00 | 0.00 | 80 | 1016.9 |
| 20260904155341 | 87 | 206 | 3.0 | 5.0 | 0.00 | 0.00 | 0.00 | 80 | 1017.3 |
| 20260904154839 | 87 | 242 | 6.0 | 7.0 | 0.00 | 0.00 | 0.00 | 80 | 1017.3 |
| 20260904154341 | 87 | 224 | 5.0 | 5.0 | 0.00 | 0.00 | 0.00 | 81 | 1016.9 |
| 20260904153838 | 87 | 238 | 6.0 | 7.0 | 0.00 | 0.00 | 0.00 | 81 | 1017.3 |
| 20260904153338 | 87 | 220 | 3.0 | 3.0 | 0.00 | 0.00 | 0.00 | 81 | 1017.3 |
| 20260904152839 | 87 | 251 | 5.0 | 9.0 | 0.00 | 0.00 | 0.00 | 82 | 1017.3 |
| 20260904152339 | 87 | 327 | 3.0 | 5.0 | 0.00 | 0.00 | 0.00 | 82 | 1017.3 |
| 20260904151839 | 86 | 247 | 3.0 | 3.0 | 0.00 | 0.00 | 0.00 | 84 | 1017.3 |
| 20260904151339 | 86 | 234 | 3.0 | 5.0 | 0.00 | 0.00 | 0.00 | 86 | 1017.3 |
| 20260904150839 | 86 | 297 | 5.0 | 5.0 | 0.00 | 0.00 | 0.00 | 85 | 1017.6 |
| 20260904150338 | 86 | 238 | 3.0 | 3.0 | 0.00 | 0.00 | 0.00 | 85 | 1017.6 |
| 20260904145840 | 86 | 244 | 5.0 | 7.0 | 0.00 | 0.00 | 0.00 | 86 | 1017.6 |
| 20260904145338 | 86 | 207 | 3.0 | 3.0 | 0.00 | 0.00 | 0.00 | 87 | 1017.3 |
| 20260904144839 | 85 | 249 | 3.0 | 5.0 | 0.00 | 0.00 | 0.00 | 87 | 1017.6 |
| 20260904141838 | 84 | 216 | 5.0 | 9.0 | 0.00 | 0.00 | 0.00 | 89 | 1017.3 |
| 20260904141338 | 83 | 255 | 5.0 | 5.0 | 0.00 | 0.00 | 0.00 | 90 | 1017.3 |
| 20260904140838 | 83 | 266 | 6.0 | 7.0 | 0.00 | 0.00 | 0.00 | 90 | 1017.3 |
| 20260904140338 | 83 | 248 | 3.0 | 5.0 | 0.00 | 0.00 | 0.00 | 91 | 1017.3 |
| 20260904135843 | 83 | 269 | 2.0 | 3.0 | 0.00 | 0.00 | 0.00 | 92 | 1017.3 |
| 20260904135340 | 82 | 231 | 5.0 | 5.0 | 0.00 | 0.00 | 0.00 | 92 | 1017.3 |
| 20260904134838 | 82 | 286 | 3.0 | 5.0 | 0.00 | 0.00 | 0.00 | 93 | 1017.3 |
| 20260904134339 | 82 | 292 | 5.0 | 5.0 | 0.00 | 0.00 | 0.00 | 93 | 1017.3 |
| 20260904133839 | 82 | 191 | 5.0 | 7.0 | 0.00 | 0.00 | 0.00 | 94 | 1016.9 |
| 20260904133339 | 81 | 187 | 3.0 | 5.0 | 0.00 | 0.00 | 0.00 | 95 | 1016.9 |
| 20260904132840 | 81 | 255 | 3.0 | 5.0 | 0.00 | 0.00 | 0.00 | 97 | 1016.9 |
| 20260904132339 | 80 | 244 | 2.0 | 2.0 | 0.00 | 0.00 | 0.00 | 99 | 1016.9 |
| 20260904131839 | 80 | 216 | 2.0 | 7.0 | 0.00 | 0.00 | 0.00 | 100 | 1016.9 |
| 20260904131338 | 80 | 208 | 2.0 | 3.0 | 0.00 | 0.00 | 0.00 | 100 | 1017.3 |
| 20260904130839 | 79 | 254 | 3.0 | 5.0 | 0.00 | 0.00 | 0.00 | 100 | 1016.9 |
| 20260904130339 | 79 | 278 | 5.0 | 9.0 | 0.00 | 0.00 | 0.00 | 100 | 1017.3 |
| 20260904125839 | 79 | 175 | 3.0 | 5.0 | 0.00 | 0.00 | 0.00 | 100 | 1016.9 |
| 20260904125339 | 79 | 216 | 3.0 | 3.0 | 0.00 | 0.00 | 0.00 | 100 | 1016.9 |
| 20260904124839 | 78 | 214 | 3.0 | 5.0 | 0.00 | 0.00 | 0.00 | 100 | 1017.3 |
| 20260904124338 | 78 | 218 | 2.0 | 5.0 | 0.00 | 0.00 | 0.00 | 100 | 1017.3 |
| 20260904123839 | 78 | 243 | 3.0 | 5.0 | 0.00 | 0.00 | 0.00 | 100 | 1017.3 |
| 20260904123338 | 78 | 246 | 3.0 | 5.0 | 0.00 | 0.00 | 0.00 | 100 | 1016.9 |
| 20260904122840 | 78 | 241 | 3.0 | 3.0 | 0.00 | 0.00 | 0.00 | 100 | 1016.9 |
| 20260904122339 | 77 | 251 | 2.0 | 5.0 | 0.00 | 0.00 | 0.00 | 100 | 1016.9 |
| 20260904121838 | 77 | 251 | 2.0 | 5.0 | 0.00 | 0.00 | 0.00 | 100 | 1016.9 |
| 20260904121340 | 77 | 261 | 2.0 | 3.0 | 0.00 | 0.00 | 0.00 | 100 | 1016.9 |
| 20260904120838 | 77 | 233 | 0.0 | 2.0 | 0.00 | 0.00 | 0.00 | 100 | 1016.9 |
| 20260904120338 | 77 | 255 | 2.0 | 3.0 | 0.00 | 0.00 | 0.00 | 100 | 1016.9 |
| 20260904115838 | 76 | 244 | 2.0 | 2.0 | 0.00 | 0.00 | 0.00 | 100 | 1016.9 |
| 20260904115338 | 76 | 239 | 2.0 | 2.0 | 0.00 | 0.00 | 0.00 | 100 | 1016.9 |
| 20260904114838 | 76 | 262 | 2.0 | 3.0 | 0.00 | 0.00 | 0.00 | 100 | 1016.9 |
| 20260904114338 | 76 | 253 | 2.0 | 2.0 | 0.00 | 0.00 | 0.00 | 100 | 1016.9 |
| 20260904113838 | 76 | 253 | 0.0 | 2.0 | 0.00 | 0.00 | 0.00 | 100 | 1016.9 |
| 20260904113339 | 76 | 280 | 2.0 | 2.0 | 0.00 | 0.00 | 0.00 | 100 | 1016.9 |
| 20260904112838 | 76 | 248 | 3.0 | 3.0 | 0.00 | 0.00 | 0.00 | 100 | 1016.9 |
| 20260904112338 | 75 | 267 | 0.0 | 2.0 | 0.00 | 0.00 | 0.00 | 100 | 1016.9 |
| 20260904111839 | 75 | 270 | 0.0 | 0.0 | 0.00 | 0.00 | 0.00 | 100 | 1017.3 |
| 20260904111339 | 75 | 269 | 0.0 | 0.0 | 0.00 | 0.00 | 0.00 | 100 | 1017.3 |
| 20260904110838 | 75 | 245 | 2.0 | 2.0 | 0.00 | 0.00 | 0.00 | 100 | 1017.3 |
| 20260904110338 | 75 | 256 | 0.0 | 0.0 | 0.00 | 0.00 | 0.00 | 100 | 1016.9 |
| 20260904105838 | 76 | 242 | 2.0 | 2.0 | 0.00 | 0.00 | 0.00 | 100 | 1016.9 |
| 20260904105338 | 75 | 294 | 0.0 | 0.0 | 0.00 | 0.00 | 0.00 | 100 | 1016.9 |
| 20260904104839 | 75 | 294 | 0.0 | 0.0 | 0.00 | 0.00 | 0.00 | 100 | 1016.9 |
| 20260904104338 | 75 | 297 | 0.0 | 0.0 | 0.00 | 0.00 | 0.00 | 100 | 1016.6 |
| 20260904103838 | 75 | 297 | 0.0 | 0.0 | 0.00 | 0.00 | 0.00 | 100 | 1016.6 |
| 20260904103338 | 75 | 300 | 0.0 | 0.0 | 0.00 | 0.00 | 0.00 | 100 | 1016.6 |
| 20260904102842 | 75 | 280 | 0.0 | 0.0 | 0.00 | 0.00 | 0.00 | 100 | 1016.6 |
| 20260904102338 | 75 | 281 | 0.0 | 0.0 | 0.00 | 0.00 | 0.00 | 100 | 1016.6 |
| 20260904101838 | 75 | 284 | 0.0 | 0.0 | 0.00 | 0.00 | 0.00 | 100 | 1016.6 |
| 20260904101338 | 75 | 280 | 2.0 | 2.0 | 0.00 | 0.00 | 0.00 | 100 | 1016.6 |
| 20260904100838 | 75 | 281 | 0.0 | 0.0 | 0.00 | 0.00 | 0.00 | 100 | 1016.3 |
| 20260904100339 | 75 | 282 | 0.0 | 0.0 | 0.00 | 0.00 | 0.00 | 100 | 1016.6 |
| 20260904095838 | 76 | 276 | 0.0 | 0.0 | 0.00 | 0.00 | 0.00 | 100 | 1016.6 |
| 20260904095339 | 76 | 274 | 0.0 | 0.0 | 0.00 | 0.00 | 0.00 | 100 | 1016.3 |
| 20260904094840 | 76 | 268 | 0.0 | 0.0 | 0.00 | 0.00 | 0.00 | 100 | 1016.6 |
| 20260904094338 | 76 | 270 | 0.0 | 0.0 | 0.00 | 0.00 | 0.00 | 100 | 1016.3 |
| 20260904093838 | 76 | 284 | 0.0 | 0.0 | 0.00 | 0.00 | 0.00 | 100 | 1016.3 |
| 20260904093340 | 76 | 287 | 0.0 | 0.0 | 0.00 | 0.00 | 0.00 | 100 | 1016.3 |
| 20260904092838 | 76 | 285 | 0.0 | 0.0 | 0.00 | 0.00 | 0.00 | 100 | 1016.6 |
| 20260904092338 | 76 | 316 | 0.0 | 0.0 | 0.00 | 0.00 | 0.00 | 100 | 1016.6 |
| 20260904091838 | 76 | 317 | 0.0 | 0.0 | 0.00 | 0.00 | 0.00 | 100 | 1016.3 |
| 20260904091339 | 76 | 317 | 0.0 | 0.0 | 0.00 | 0.00 | 0.00 | 100 | 1016.3 |
| 20260904090839 | 76 | 317 | 0.0 | 0.0 | 0.00 | 0.00 | 0.00 | 100 | 1016.3 |
| 20260904090339 | 76 | 317 | 0.0 | 0.0 | 0.00 | 0.00 | 0.00 | 100 | 1016.3 |
| 20260904085838 | 76 | 317 | 0.0 | 0.0 | 0.00 | 0.00 | 0.00 | 100 | 1016.3 |
| 20260904085338 | 76 | 286 | 0.0 | 0.0 | 0.00 | 0.00 | 0.00 | 100 | 1016.3 |
| 20260904084839 | 76 | 286 | 0.0 | 0.0 | 0.00 | 0.00 | 0.00 | 100 | 1016.3 |
| 20260904084338 | 76 | 286 | 0.0 | 0.0 | 0.00 | 0.00 | 0.00 | 100 | 1016.3 |
| 20260904083838 | 76 | 286 | 0.0 | 0.0 | 0.00 | 0.00 | 0.00 | 100 | 1016.3 |
| 20260904083339 | 76 | 283 | 0.0 | 0.0 | 0.00 | 0.00 | 0.00 | 100 | 1016.3 |
| 20260904082838 | 76 | 275 | 0.0 | 0.0 | 0.00 | 0.00 | 0.00 | 100 | 1016.6 |
| 20260904082339 | 76 | 276 | 0.0 | 0.0 | 0.00 | 0.00 | 0.00 | 100 | 1016.3 |
| 20260904081839 | 76 | 303 | 0.0 | 0.0 | 0.00 | 0.00 | 0.00 | 100 | 1016.3 |
| 20260904081339 | 76 | 304 | 0.0 | 0.0 | 0.00 | 0.00 | 0.00 | 100 | 1016.3 |
| 20260904080840 | 76 | 270 | 0.0 | 0.0 | 0.00 | 0.00 | 0.00 | 100 | 1016.6 |
| 20260904080339 | 76 | 317 | 0.0 | 0.0 | 0.00 | 0.00 | 0.00 | 100 | 1016.6 |
| 20260904075849 | 76 | 291 | 0.0 | 0.0 | 0.00 | 0.00 | 0.00 | 100 | 1016.6 |
| 20260904075340 | 76 | 275 | 0.0 | 2.0 | 0.00 | 0.00 | 0.00 | 100 | 1016.6 |
| 20260904074839 | 76 | 288 | 0.0 | 0.0 | 0.00 | 0.00 | 0.00 | 100 | 1016.6 |
| 20260904074338 | 77 | 288 | 0.0 | 0.0 | 0.00 | 0.00 | 0.00 | 100 | 1016.6 |
| 20260904073838 | 77 | 322 | 0.0 | 0.0 | 0.00 | 0.00 | 0.00 | 100 | 1016.6 |
| 20260904073340 | 77 | 325 | 0.0 | 0.0 | 0.00 | 0.00 | 0.00 | 100 | 1016.6 |
| 20260904072841 | 77 | 291 | 0.0 | 0.0 | 0.00 | 0.00 | 0.00 | 100 | 1016.6 |
| 20260904072338 | 77 | 288 | 0.0 | 0.0 | 0.00 | 0.00 | 0.00 | 100 | 1016.6 |
| 20260904071839 | 77 | 280 | 0.0 | 2.0 | 0.00 | 0.00 | 0.00 | 100 | 1016.6 |
| 20260904071338 | 77 | 273 | 0.0 | 2.0 | 0.00 | 0.00 | 0.00 | 100 | 1016.6 |
| 20260904070840 | 77 | 310 | 0.0 | 0.0 | 0.00 | 0.00 | 0.00 | 100 | 1016.6 |
| 20260904070338 | 77 | 311 | 0.0 | 0.0 | 0.00 | 0.00 | 0.00 | 100 | 1016.6 |
| 20260904065840 | 77 | 300 | 0.0 | 0.0 | 0.00 | 0.00 | 0.00 | 100 | 1016.6 |
| 20260904065339 | 77 | 294 | 0.0 | 0.0 | 0.00 | 0.00 | 0.00 | 100 | 1016.6 |
| 20260904064838 | 77 | 288 | 0.0 | 0.0 | 0.00 | 0.00 | 0.00 | 100 | 1016.6 |
| 20260904064339 | 77 | 278 | 0.0 | 0.0 | 0.00 | 0.00 | 0.00 | 100 | 1016.6 |
| 20260904063838 | 77 | 280 | 0.0 | 0.0 | 0.00 | 0.00 | 0.00 | 100 | 1016.9 |
| 20260904063339 | 77 | 238 | 3.0 | 3.0 | 0.00 | 0.00 | 0.00 | 100 | 1016.9 |
| 20260904062839 | 77 | 295 | 0.0 | 0.0 | 0.00 | 0.00 | 0.00 | 100 | 1016.9 |
| 20260904062339 | 77 | 326 | 0.0 | 0.0 | 0.00 | 0.00 | 0.00 | 100 | 1016.9 |
| 20260904061841 | 77 | 336 | 0.0 | 0.0 | 0.00 | 0.00 | 0.00 | 100 | 1016.9 |
| 20260904061338 | 78 | 338 | 0.0 | 0.0 | 0.00 | 0.00 | 0.00 | 100 | 1016.9 |
| 20260904060839 | 78 | 338 | 0.0 | 0.0 | 0.00 | 0.00 | 0.00 | 100 | 1016.9 |
| 20260904060339 | 78 | 259 | 0.0 | 0.0 | 0.00 | 0.00 | 0.00 | 100 | 1016.9 |
| 20260904055838 | 78 | 278 | 2.0 | 2.0 | 0.00 | 0.00 | 0.00 | 100 | 1016.9 |
| 20260904055338 | 78 | 260 | 0.0 | 0.0 | 0.00 | 0.00 | 0.00 | 100 | 1016.9 |
| 20260904054838 | 78 | 257 | 2.0 | 2.0 | 0.00 | 0.00 | 0.00 | 100 | 1016.9 |
| 20260904054340 | 78 | 287 | 0.0 | 2.0 | 0.00 | 0.00 | 0.00 | 100 | 1017.3 |
| 20260904053839 | 78 | 269 | 0.0 | 0.0 | 0.00 | 0.00 | 0.00 | 100 | 1016.9 |
| 20260904053339 | 78 | 287 | 0.0 | 0.0 | 0.00 | 0.00 | 0.00 | 100 | 1017.3 |
| 20260904052838 | 78 | 282 | 0.0 | 0.0 | 0.00 | 0.00 | 0.00 | 99 | 1017.3 |
| 20260904052339 | 78 | 276 | 0.0 | 0.0 | 0.00 | 0.00 | 0.00 | 99 | 1017.3 |
| 20260904051838 | 78 | 274 | 0.0 | 0.0 | 0.00 | 0.00 | 0.00 | 99 | 1017.3 |
| 20260904051338 | 78 | 254 | 2.0 | 2.0 | 0.00 | 0.00 | 0.00 | 99 | 1017.3 |
| 20260904050839 | 78 | 287 | 0.0 | 0.0 | 0.00 | 0.00 | 0.00 | 99 | 1017.6 |
| 20260904050338 | 78 | 286 | 0.0 | 0.0 | 0.00 | 0.00 | 0.00 | 99 | 1017.6 |
| 20260904045838 | 78 | 281 | 0.0 | 0.0 | 0.00 | 0.00 | 0.00 | 99 | 1017.6 |
| 20260904045338 | 78 | 283 | 0.0 | 2.0 | 0.00 | 0.00 | 0.00 | 99 | 1017.6 |
| 20260904044838 | 78 | 286 | 0.0 | 0.0 | 0.00 | 0.00 | 0.00 | 99 | 1017.6 |
| 20260904044339 | 78 | 258 | 0.0 | 0.0 | 0.00 | 0.00 | 0.00 | 99 | 1017.6 |
| 20260904043839 | 78 | 266 | 2.0 | 3.0 | 0.00 | 0.00 | 0.00 | 99 | 1017.6 |
| 20260904043340 | 78 | 339 | 0.0 | 0.0 | 0.00 | 0.00 | 0.00 | 99 | 1017.6 |
| 20260904042840 | 79 | 294 | 0.0 | 0.0 | 0.00 | 0.00 | 0.00 | 99 | 1017.6 |
| 20260904042339 | 79 | 251 | 2.0 | 2.0 | 0.00 | 0.00 | 0.00 | 99 | 1017.6 |
| 20260904041840 | 79 | 273 | 0.0 | 0.0 | 0.00 | 0.00 | 0.00 | 98 | 1017.9 |
| 20260904041338 | 79 | 265 | 2.0 | 2.0 | 0.00 | 0.00 | 0.00 | 98 | 1017.6 |
| 20260904040838 | 79 | 304 | 0.0 | 0.0 | 0.00 | 0.00 | 0.00 | 98 | 1017.9 |
| 20260904040338 | 79 | 286 | 0.0 | 0.0 | 0.00 | 0.00 | 0.00 | 98 | 1017.6 |
| 20260904035838 | 79 | 284 | 0.0 | 0.0 | 0.00 | 0.00 | 0.00 | 98 | 1017.6 |
| 20260904035338 | 79 | 279 | 0.0 | 0.0 | 0.00 | 0.00 | 0.00 | 98 | 1017.6 |
| 20260904034838 | 79 | 286 | 0.0 | 0.0 | 0.00 | 0.00 | 0.00 | 98 | 1017.9 |
| 20260904034339 | 79 | 256 | 0.0 | 0.0 | 0.00 | 0.00 | 0.00 | 98 | 1017.9 |
| 20260904033838 | 79 | 236 | 2.0 | 2.0 | 0.00 | 0.00 | 0.00 | 98 | 1017.9 |
| 20260904033338 | 79 | 256 | 0.0 | 0.0 | 0.00 | 0.00 | 0.00 | 98 | 1017.9 |
| 20260904032838 | 79 | 249 | 2.0 | 3.0 | 0.00 | 0.00 | 0.00 | 98 | 1017.9 |
| 20260904032339 | 79 | 256 | 2.0 | 2.0 | 0.00 | 0.00 | 0.00 | 97 | 1017.9 |
| 20260904031838 | 80 | 249 | 2.0 | 2.0 | 0.00 | 0.00 | 0.00 | 97 | 1017.9 |
| 20260904031339 | 80 | 306 | 2.0 | 3.0 | 0.00 | 0.00 | 0.00 | 97 | 1017.9 |
| 20260904030838 | 80 | 236 | 2.0 | 2.0 | 0.00 | 0.00 | 0.00 | 97 | 1017.6 |
| 20260904030339 | 80 | 262 | 5.0 | 5.0 | 0.00 | 0.00 | 0.00 | 97 | 1017.6 |
| 20260904025838 | 80 | 251 | 2.0 | 2.0 | 0.00 | 0.00 | 0.00 | 97 | 1017.6 |
| 20260904025342 | 80 | 239 | 3.0 | 3.0 | 0.00 | 0.00 | 0.00 | 97 | 1017.9 |
| 20260904024839 | 80 | 215 | 2.0 | 5.0 | 0.00 | 0.00 | 0.00 | 97 | 1017.9 |
| 20260904024338 | 80 | 236 | 2.0 | 2.0 | 0.00 | 0.00 | 0.00 | 97 | 1017.9 |
| 20260904023838 | 80 | 227 | 2.0 | 2.0 | 0.00 | 0.00 | 0.00 | 97 | 1017.9 |
| 20260904023339 | 80 | 226 | 3.0 | 3.0 | 0.00 | 0.00 | 0.00 | 97 | 1017.9 |
| 20260904022838 | 80 | 235 | 2.0 | 2.0 | 0.00 | 0.00 | 0.00 | 96 | 1017.9 |
| 20260904022338 | 80 | 230 | 2.0 | 2.0 | 0.00 | 0.00 | 0.00 | 96 | 1017.9 |
| 20260904021838 | 80 | 212 | 2.0 | 2.0 | 0.00 | 0.00 | 0.00 | 96 | 1017.6 |
| 20260904021339 | 80 | 268 | 2.0 | 2.0 | 0.00 | 0.00 | 0.00 | 96 | 1017.9 |
| 20260904020838 | 81 | 209 | 2.0 | 2.0 | 0.00 | 0.00 | 0.00 | 96 | 1017.9 |
| 20260904020341 | 81 | 229 | 0.0 | 2.0 | 0.00 | 0.00 | 0.00 | 96 | 1017.9 |
| 20260904015839 | 81 | 229 | 2.0 | 2.0 | 0.00 | 0.00 | 0.00 | 96 | 1017.9 |
| 20260904015342 | 81 | 245 | 2.0 | 2.0 | 0.00 | 0.00 | 0.00 | 96 | 1017.9 |
| 20260904014838 | 81 | 268 | 0.0 | 2.0 | 0.00 | 0.00 | 0.00 | 95 | 1017.6 |
| 20260904014338 | 81 | 223 | 2.0 | 3.0 | 0.00 | 0.00 | 0.00 | 95 | 1017.6 |
| 20260904013838 | 81 | 273 | 0.0 | 0.0 | 0.00 | 0.00 | 0.00 | 95 | 1017.6 |
| 20260904013339 | 81 | 265 | 0.0 | 2.0 | 0.00 | 0.00 | 0.00 | 95 | 1017.6 |
| 20260904012839 | 81 | 285 | 0.0 | 0.0 | 0.00 | 0.00 | 0.00 | 95 | 1017.6 |
| 20260904012338 | 81 | 232 | 3.0 | 3.0 | 0.00 | 0.00 | 0.00 | 95 | 1017.6 |
| 20260904011839 | 81 | 260 | 0.0 | 0.0 | 0.00 | 0.00 | 0.00 | 95 | 1017.3 |
| 20260904011343 | 81 | 268 | 0.0 | 0.0 | 0.00 | 0.00 | 0.00 | 94 | 1017.3 |
| 20260904010839 | 81 | 272 | 0.0 | 0.0 | 0.00 | 0.00 | 0.00 | 94 | 1017.3 |
| 20260904010339 | 81 | 174 | 2.0 | 2.0 | 0.00 | 0.00 | 0.00 | 94 | 1017.3 |
| 20260904005839 | 81 | 262 | 2.0 | 2.0 | 0.00 | 0.00 | 0.00 | 94 | 1017.3 |
| 20260904005338 | 81 | 287 | 0.0 | 0.0 | 0.00 | 0.00 | 0.00 | 93 | 1017.3 |
| 20260904004838 | 81 | 204 | 2.0 | 2.0 | 0.00 | 0.00 | 0.00 | 93 | 1017.3 |
| 20260904004339 | 81 | 343 | 0.0 | 0.0 | 0.00 | 0.00 | 0.00 | 93 | 1016.9 |
| 20260904003839 | 82 | 297 | 0.0 | 0.0 | 0.00 | 0.00 | 0.00 | 92 | 1016.9 |
| 20260904003338 | 82 | 284 | 0.0 | 0.0 | 0.00 | 0.00 | 0.00 | 92 | 1016.9 |
| 20260904002839 | 82 | 297 | 0.0 | 0.0 | 0.00 | 0.00 | 0.00 | 92 | 1016.6 |
| 20260904002339 | 82 | 65 | 2.0 | 2.0 | 0.00 | 0.00 | 0.00 | 92 | 1016.6 |
| 20260904001838 | 82 | 342 | 0.0 | 0.0 | 0.00 | 0.00 | 0.00 | 91 | 1016.6 |
| 20260904001338 | 82 | 282 | 0.0 | 0.0 | 0.00 | 0.00 | 0.00 | 90 | 1016.6 |
| 20260904000839 | 82 | 269 | 0.0 | 0.0 | 0.00 | 0.00 | 0.00 | 90 | 1016.3 |
| 20260904000340 | 83 | 271 | 0.0 | 0.0 | 0.00 | 0.00 | 0.00 | 89 | 1016.3 |
| 20260903235839 | 83 | 39 | 0.0 | 0.0 | 0.00 | 0.00 | 0.00 | 89 | 1016.3 |
| 20260903235338 | 83 | 226 | 2.0 | 2.0 | 0.00 | 0.00 | 0.00 | 89 | 1016.3 |
| 20260903234838 | 83 | 227 | 2.0 | 2.0 | 0.00 | 0.00 | 0.00 | 88 | 1016.3 |
| 20260903234339 | 83 | 244 | 2.0 | 5.0 | 0.00 | 0.00 | 0.00 | 88 | 1016.3 |
| 20260903233838 | 84 | 264 | 2.0 | 2.0 | 0.00 | 0.00 | 0.00 | 87 | 1016.3 |
| 20260903233339 | 84 | 255 | 2.0 | 3.0 | 0.00 | 0.00 | 0.00 | 87 | 1016.3 |
| 20260903232839 | 84 | 232 | 5.0 | 5.0 | 0.00 | 0.00 | 0.00 | 86 | 1016.3 |
| 20260903232340 | 84 | 263 | 2.0 | 2.0 | 0.00 | 0.00 | 0.00 | 85 | 1016.3 |
| 20260903231845 | 85 | 200 | 2.0 | 2.0 | 0.00 | 0.00 | 0.00 | 84 | 1016.3 |
| 20260903231338 | 85 | 218 | 5.0 | 7.0 | 0.00 | 0.00 | 0.00 | 84 | 1016.6 |
| 20260903230838 | 85 | 208 | 3.0 | 3.0 | 0.00 | 0.00 | 0.00 | 83 | 1016.6 |
| 20260903230339 | 86 | 202 | 5.0 | 5.0 | 0.00 | 0.00 | 0.00 | 82 | 1016.6 |
| 20260903225839 | 86 | 239 | 5.0 | 5.0 | 0.00 | 0.00 | 0.00 | 81 | 1016.6 |
| 20260903225338 | 86 | 226 | 3.0 | 5.0 | 0.00 | 0.00 | 0.00 | 80 | 1016.6 |
| 20260903224840 | 87 | 204 | 3.0 | 5.0 | 0.00 | 0.00 | 0.00 | 78 | 1016.6 |
| 20260903224339 | 87 | 244 | 2.0 | 5.0 | 0.00 | 0.00 | 0.00 | 78 | 1016.6 |
| 20260903223839 | 87 | 190 | 3.0 | 3.0 | 0.00 | 0.00 | 0.00 | 76 | 1016.6 |
| 20260903223338 | 88 | 268 | 2.0 | 3.0 | 0.00 | 0.00 | 0.00 | 76 | 1016.6 |
| 20260903222839 | 87 | 245 | 5.0 | 5.0 | 0.00 | 0.00 | 0.00 | 77 | 1016.6 |
| 20260903222338 | 88 | 196 | 3.0 | 5.0 | 0.00 | 0.00 | 0.00 | 76 | 1016.6 |
| 20260903221840 | 88 | 234 | 3.0 | 3.0 | 0.00 | 0.00 | 0.00 | 77 | 1016.6 |
| 20260903221339 | 88 | 315 | 2.0 | 2.0 | 0.00 | 0.00 | 0.00 | 76 | 1016.6 |
| 20260903220838 | 88 | 180 | 2.0 | 5.0 | 0.00 | 0.00 | 0.00 | 75 | 1016.6 |
| 20260903220340 | 88 | 121 | 2.0 | 2.0 | 0.00 | 0.00 | 0.00 | 75 | 1016.6 |
| 20260903215838 | 89 | 243 | 5.0 | 5.0 | 0.00 | 0.00 | 0.00 | 72 | 1016.6 |
| 20260903215338 | 89 | 271 | 3.0 | 3.0 | 0.00 | 0.00 | 0.00 | 72 | 1016.6 |
| 20260903214838 | 88 | 276 | 0.0 | 2.0 | 0.00 | 0.00 | 0.00 | 72 | 1016.6 |
| 20260903214338 | 89 | 232 | 2.0 | 2.0 | 0.00 | 0.00 | 0.00 | 71 | 1016.3 |
| 20260903213839 | 90 | 220 | 3.0 | 3.0 | 0.00 | 0.00 | 0.00 | 70 | 1016.6 |
| 20260903213338 | 90 | 266 | 5.0 | 5.0 | 0.00 | 0.00 | 0.00 | 68 | 1016.6 |
| 20260903212838 | 91 | 223 | 3.0 | 3.0 | 0.00 | 0.00 | 0.00 | 70 | 1016.6 |
| 20260903212338 | 90 | 195 | 2.0 | 2.0 | 0.00 | 0.00 | 0.00 | 72 | 1016.6 |
| 20260903211839 | 89 | 261 | 0.0 | 0.0 | 0.00 | 0.00 | 0.00 | 71 | 1016.6 |
| 20260903211341 | 90 | 97 | 2.0 | 2.0 | 0.00 | 0.00 | 0.00 | 70 | 1016.6 |
| 20260903210839 | 91 | 217 | 6.0 | 7.0 | 0.00 | 0.00 | 0.00 | 68 | 1016.3 |
| 20260903210339 | 90 | 129 | 2.0 | 3.0 | 0.00 | 0.00 | 0.00 | 74 | 1016.3 |
| 20260903205838 | 89 | 136 | 2.0 | 3.0 | 0.00 | 0.00 | 0.00 | 72 | 1016.3 |
| 20260903205339 | 90 | 182 | 2.0 | 3.0 | 0.00 | 0.00 | 0.00 | 73 | 1016.3 |
| 20260903204839 | 90 | 193 | 2.0 | 2.0 | 0.00 | 0.00 | 0.00 | 73 | 1016.3 |
| 20260903204338 | 90 | 279 | 2.0 | 2.0 | 0.00 | 0.00 | 0.00 | 73 | 1016.3 |
| 20260903203839 | 90 | 83 | 2.0 | 2.0 | 0.00 | 0.00 | 0.00 | 73 | 1016.6 |
| 20260903203338 | 90 | 98 | 2.0 | 2.0 | 0.00 | 0.00 | 0.00 | 73 | 1016.6 |
| 20260903202839 | 91 | 249 | 0.0 | 2.0 | 0.00 | 0.00 | 0.00 | 71 | 1016.6 |
| 20260903202339 | 90 | 225 | 2.0 | 3.0 | 0.00 | 0.00 | 0.00 | 71 | 1016.6 |
| 20260903201840 | 90 | 288 | 2.0 | 2.0 | 0.00 | 0.00 | 0.00 | 68 | 1016.6 |
| 20260903201338 | 90 | 225 | 2.0 | 3.0 | 0.00 | 0.00 | 0.00 | 68 | 1016.9 |
| 20260903200841 | 91 | 337 | 0.0 | 0.0 | 0.00 | 0.00 | 0.00 | 66 | 1016.9 |
| 20260903200339 | 91 | 249 | 3.0 | 3.0 | 0.00 | 0.00 | 0.00 | 69 | 1016.9 |
| 20260903195839 | 91 | 113 | 2.0 | 3.0 | 0.00 | 0.00 | 0.00 | 70 | 1016.9 |
| 20260903195339 | 90 | 249 | 2.0 | 3.0 | 0.00 | 0.00 | 0.00 | 66 | 1016.9 |
| 20260903194839 | 91 | 337 | 0.0 | 5.0 | 0.00 | 0.00 | 0.00 | 69 | 1016.9 |
| 20260903194338 | 92 | 208 | 5.0 | 5.0 | 0.00 | 0.00 | 0.00 | 64 | 1016.9 |
| 20260903193838 | 90 | 220 | 2.0 | 2.0 | 0.00 | 0.00 | 0.00 | 67 | 1016.9 |
| 20260903193339 | 91 | 275 | 2.0 | 2.0 | 0.00 | 0.00 | 0.00 | 72 | 1016.9 |
| 20260903192838 | 91 | 235 | 2.0 | 2.0 | 0.00 | 0.00 | 0.00 | 70 | 1017.3 |
| 20260903192338 | 90 | 72 | 0.0 | 2.0 | 0.00 | 0.00 | 0.00 | 69 | 1017.3 |
| 20260903191839 | 92 | 38 | 2.0 | 3.0 | 0.00 | 0.00 | 0.00 | 67 | 1017.3 |
| 20260903191339 | 91 | 176 | 2.0 | 2.0 | 0.00 | 0.00 | 0.00 | 68 | 1017.3 |